FW4270 Weather Reports


time (UTC)temp
F
wind
direction
speed
knots
gust
knots
rain 1hr
in
rain 24hr
in
rain mn
in
humidity
%
barometer
mb
20260504214729 68 72 0.0 1.7 0.00 0.00 0.00 69 1012.2
20260504214228 68 72 0.0 0.0 0.00 0.00 0.00 69 1012.2
20260504213729 68 72 0.0 0.0 0.00 0.00 0.00 68 1012.2
20260504213225 68 72 0.0 0.0 0.00 0.00 0.00 68 1012.2
20260504212725 68 72 0.0 0.0 0.00 0.00 0.00 66 1012.1
20260504212227 68 72 0.0 0.0 0.00 0.00 0.00 66 1012.1
20260504211726 68 72 0.0 0.0 0.00 0.00 0.00 66 1012.1
20260504211225 69 72 0.0 0.0 0.00 0.00 0.00 66 1012.1
20260504210723 69 72 0.0 0.0 0.00 0.00 0.00 65 1012.1
20260504210221 69 72 0.0 0.0 0.00 0.00 0.00 65 1012.1
20260504205721 69 72 0.0 0.0 0.00 0.00 0.00 65 1012.1
20260504205219 69 72 0.0 0.0 0.00 0.00 0.00 65 1012.1
20260504204717 69 72 0.0 0.0 0.00 0.00 0.00 65 1012.1
20260504204450 69 72 0.0 0.0 0.00 0.00 0.00 64 1012.0
20260504203443 69 72 0.0 0.0 0.00 0.00 0.00 63 1012.0
20260504202723 70 72 0.0 0.0 0.00 0.00 0.00 62 1011.9
20260504202218 70 72 0.0 0.0 0.00 0.00 0.00 61 1012.0
20260504201719 70 72 0.9 2.6 0.00 0.00 0.00 60 1011.9
20260504201217 70 72 0.9 4.3 0.00 0.00 0.00 60 1011.9
20260504200715 70 71 0.9 4.3 0.00 0.00 0.00 59 1011.9
20260504200215 70 73 0.0 2.6 0.00 0.00 0.00 59 1011.9
20260504195715 69 73 0.9 3.5 0.00 0.00 0.00 59 1012.0
20260504195215 69 73 0.9 3.5 0.00 0.00 0.00 60 1011.9
20260504194714 69 56 0.9 3.5 0.00 0.00 0.00 62 1011.9
20260504194215 69 36 0.0 0.0 0.00 0.00 0.00 64 1011.8
20260504193714 70 35 0.0 0.0 0.00 0.00 0.00 65 1011.8
20260504193213 70 35 0.0 0.0 0.00 0.00 0.00 65 1011.7
20260504192713 70 35 0.0 0.0 0.00 0.00 0.00 65 1011.7
20260504192216 70 35 0.0 0.0 0.00 0.00 0.00 65 1011.7
20260504191713 70 35 0.0 0.0 0.00 0.00 0.00 65 1011.7
20260504191214 70 35 0.0 0.0 0.00 0.00 0.00 66 1011.6
20260504190715 70 35 0.0 0.0 0.00 0.00 0.00 65 1011.6
20260504190212 70 35 0.0 0.0 0.00 0.00 0.00 65 1011.5
20260504185715 70 35 0.0 0.0 0.00 0.00 0.00 65 1011.4
20260504185209 70 35 0.0 0.0 0.00 0.00 0.00 65 1011.3
20260504184704 70 30 0.0 0.0 0.00 0.00 0.00 65 1011.3
20260504184159 70 30 0.0 0.0 0.00 0.00 0.00 65 1011.1
20260504183652 70 30 0.0 0.0 0.00 0.00 0.00 64 1011.1
20260504183145 71 30 0.0 0.0 0.00 0.00 0.00 64 1011.1
20260504182639 71 30 0.9 2.6 0.00 0.00 0.00 64 1011.0
20260504182133 71 23 1.7 3.5 0.00 0.00 0.00 64 1010.8
20260504181627 71 23 1.7 3.5 0.00 0.00 0.00 64 1010.6
20260504181127 71 333 0.9 3.5 0.00 0.00 0.00 63 1010.6
20260504180627 71 95 0.9 2.6 0.00 0.00 0.00 61 1010.6
20260504180123 71 101 0.9 2.6 0.00 0.00 0.00 60 1010.7
20260504175623 71 101 1.7 2.6 0.00 0.00 0.00 59 1010.6
20260504175125 71 101 0.9 2.6 0.00 0.00 0.00 59 1010.7
20260504174623 71 111 0.0 2.6 0.00 0.00 0.00 59 1010.9
20260504174353 71 155 0.0 1.7 0.00 0.00 0.00 60 1010.9
20260504173847 71 155 0.9 2.6 0.00 0.00 0.00 60 1010.9
20260504173125 71 155 0.9 2.6 0.00 0.00 0.00 60 1010.9
20260504172853 71 162 0.0 0.0 0.00 0.00 0.00 60 1010.9
20260504172123 71 163 0.0 0.0 0.00 0.00 0.00 59 1010.9
20260504171844 71 163 0.0 0.0 0.00 0.00 0.00 59 1010.9
20260504171121 71 163 0.0 0.0 0.00 0.00 0.00 59 1010.9
20260504170621 71 162 0.0 0.0 0.00 0.00 0.00 59 1011.0
20260504170117 71 163 0.0 0.0 0.00 0.00 0.00 60 1011.1
20260504160109 72 163 0.0 0.0 0.00 0.00 0.00 57 1011.0
20260504151103 73 181 4.3 7.8 0.00 0.00 0.00 56 1010.4
20260504150605 73 144 4.3 8.7 0.00 0.00 0.00 56 1010.5
20260504150105 73 196 4.3 8.7 0.00 0.00 0.00 56 1010.5
20260504141104 76 162 3.5 7.8 0.00 0.00 0.00 51 1009.4
20260504140602 76 157 4.3 10.4 0.00 0.00 0.00 51 1009.3
20260504130545 77 89 6.1 12.2 0.00 0.00 0.00 51 1009.5
20260504110444 81 92 5.2 11.3 0.00 0.00 0.00 47 1009.1
20260504100329 80 94 5.2 13.0 0.00 0.00 0.00 55 1010.0
20260504081622 83 58 1.7 5.2 0.00 0.00 0.00 52 1009.0
20260504081121 83 44 1.7 4.3 0.00 0.00 0.00 53 1009.1
20260504080611 82 45 2.6 7.0 0.00 0.00 0.00 54 1009.3
20260504080350 82 333 2.6 7.0 0.00 0.00 0.00 54 1009.5
20260504060249 81 30 2.6 6.1 0.00 0.00 0.00 48 1010.7
20260504050522 82 236 3.5 7.0 0.00 0.00 0.00 51 1010.4
20260504050022 82 179 3.5 6.1 0.00 0.00 0.00 50 1010.2
20260504045523 82 198 3.5 6.1 0.00 0.00 0.00 49 1010.2
20260504045250 82 210 3.5 7.8 0.00 0.00 0.00 50 1010.1
20260504044524 82 194 4.3 8.7 0.00 0.00 0.00 51 1010.1
20260504044020 82 186 4.3 8.7 0.00 0.00 0.00 53 1010.1
20260504043520 82 228 5.2 9.6 0.00 0.00 0.00 53 1010.2
20260504043020 81 187 6.1 9.6 0.00 0.00 0.00 54 1010.2
20260504042517 81 188 6.1 13.0 0.00 0.00 0.00 56 1010.1
20260504042020 81 184 6.1 13.0 0.00 0.00 0.00 56 1010.0
20260504041520 81 180 6.1 11.3 0.00 0.00 0.00 57 1010.0
20260504041019 81 182 5.2 12.2 0.00 0.00 0.00 56 1009.9
20260504040520 81 181 5.2 12.2 0.00 0.00 0.00 57 1009.8
20260504040020 81 174 5.2 11.3 0.00 0.00 0.00 56 1009.7
20260504035516 80 190 4.3 8.7 0.00 0.00 0.00 58 1009.6
20260504035016 80 182 3.5 7.8 0.00 0.00 0.00 58 1009.6
20260504034516 80 161 3.5 7.0 0.00 0.00 0.00 58 1009.4
20260504034016 80 151 2.6 6.1 0.00 0.00 0.00 57 1009.3
20260504033518 80 116 3.5 7.8 0.00 0.00 0.00 56 1009.3
20260504033016 80 155 3.5 7.8 0.00 0.00 0.00 56 1009.2
20260504032516 80 121 2.6 7.0 0.00 0.00 0.00 57 1009.1
20260504032014 80 122 1.7 5.2 0.00 0.00 0.00 56 1009.0
20260504031514 80 248 0.9 3.5 0.00 0.00 0.00 57 1008.8
20260504031010 80 250 0.9 3.5 0.00 0.00 0.00 57 1008.8
20260504030509 80 250 0.9 2.6 0.00 0.00 0.00 57 1008.7
20260504030010 80 250 0.9 2.6 0.00 0.00 0.00 58 1008.5
20260504025509 80 251 0.9 2.6 0.00 0.00 0.00 58 1008.5
20260504025003 79 250 0.9 2.6 0.00 0.00 0.00 58 1008.6
20260504024502 79 251 0.9 2.6 0.00 0.00 0.00 60 1008.4
20260504024002 78 251 0.9 2.6 0.00 0.00 0.00 61 1008.2
20260504023504 78 252 0.9 2.6 0.00 0.00 0.00 61 1008.2
20260504022959 78 252 1.7 2.6 0.00 0.00 0.00 63 1008.1
20260504022500 77 252 1.7 3.5 0.00 0.00 0.00 63 1008.0
20260504022002 77 252 0.9 3.5 0.00 0.00 0.00 64 1007.9
20260504021500 77 322 0.9 1.7 0.00 0.00 0.00 64 1007.9
20260504020958 76 321 0.0 1.7 0.00 0.00 0.00 65 1007.9
20260504020458 76 321 0.0 0.0 0.00 0.00 0.00 68 1007.8
20260504015958 76 321 0.0 0.0 0.00 0.00 0.00 69 1007.8
20260504015459 75 321 0.0 0.0 0.00 0.00 0.00 69 1007.7
20260504014959 75 321 0.0 0.0 0.00 0.00 0.00 70 1007.6
20260504014456 74 321 0.0 0.0 0.00 0.00 0.00 71 1007.6
20260504013956 74 321 0.0 0.0 0.00 0.00 0.00 72 1007.5
20260504013501 73 321 0.0 0.0 0.00 0.00 0.00 72 1007.5
20260504012954 73 321 0.0 0.0 0.00 0.00 0.00 72 1007.4
20260504012447 73 321 0.0 0.0 0.00 0.00 0.00 72 1007.4
20260504011941 72 321 0.0 0.0 0.00 0.00 0.00 72 1007.8
20260504011434 72 321 0.0 1.7 0.00 0.00 0.00 72 1007.4
20260504010929 72 321 0.9 3.5 0.00 0.00 0.00 72 1007.3
20260504010423 72 321 1.7 3.5 0.00 0.00 0.00 73 1007.3
20260504005917 72 321 1.7 3.5 0.00 0.00 0.00 73 1007.3
20260504005630 72 322 1.7 2.6 0.00 0.00 0.00 73 1007.3
20260504004905 72 323 0.9 2.6 0.00 0.00 0.00 74 1007.1
20260504004359 72 344 0.0 0.0 0.00 0.00 0.00 74 1007.0
20260504003853 72 344 0.0 0.0 0.00 0.00 0.00 74 1006.9
20260504003348 72 344 0.0 0.0 0.00 0.00 0.00 73 1006.9
20260504002841 72 344 0.0 0.0 0.00 0.00 0.00 73 1006.9
20260504002335 72 344 0.0 0.0 0.00 0.00 0.00 73 1006.9
20260504001829 72 344 0.0 0.0 0.00 0.00 0.00 73 1006.8
20260504001324 72 344 0.0 0.9 0.00 0.00 0.00 72 1006.8
20260504000817 72 344 0.0 0.9 0.00 0.00 0.00 72 1006.8
20260504000312 72 344 0.0 0.9 0.00 0.00 0.00 72 1006.7
20260503235805 72 344 0.0 2.6 0.00 0.00 0.00 72 1006.7
20260503235527 72 344 0.0 2.6 0.00 0.00 0.00 72 1006.6
20260503235019 72 345 0.0 1.7 0.00 0.00 0.00 71 1006.7
20260503234247 72 0 0.0 0.0 0.00 0.00 0.00 71 1006.6
20260503233741 72 0 0.0 0.0 0.00 0.00 0.00 72 1006.7
20260503233503 72 0 0.0 0.0 0.00 0.00 0.00 72 1006.5
20260503232729 72 0 0.0 0.0 0.00 0.00 0.00 72 1006.6
20260503232223 72 14 0.0 0.0 0.00 0.00 0.00 72 1006.7
20260503231211 72 14 0.0 0.0 0.00 0.00 0.00 72 1006.6
20260503230705 72 14 0.0 0.0 0.00 0.00 0.00 72 1006.6
20260503230159 72 14 0.0 0.0 0.00 0.00 0.00 73 1006.6
20260503225653 73 14 0.0 0.0 0.00 0.00 0.00 73 1006.5
20260503225148 73 14 0.0 0.0 0.00 0.00 0.00 72 1006.4
20260503224641 73 14 0.0 0.0 0.00 0.00 0.00 72 1006.5
20260503224135 73 14 0.0 0.0 0.00 0.00 0.00 71 1006.5
20260503223854 73 14 0.0 0.0 0.00 0.00 0.00 71 1006.5
20260503223125 73 14 0.0 0.0 0.00 0.00 0.00 71 1006.5
20260503222849 73 14 0.0 0.0 0.00 0.00 0.00 70 1006.5
20260503222340 74 14 0.0 0.0 0.00 0.00 0.00 70 1006.4
20260503221120 74 14 0.0 0.0 0.00 0.00 0.00 67 1006.5
20260503220619 74 14 0.0 0.0 0.00 0.00 0.00 68 1006.5
20260503220117 74 14 0.0 0.0 0.00 0.00 0.00 68 1006.6
20260503215614 74 14 0.0 0.0 0.00 0.00 0.00 67 1006.8